THORAD AGENA D DEB

Satellite information

Favourite Embed

Satellite Type and Status

DEBRISIN ORBIT

Key statistics

Satellite THORAD AGENA D DEB at a glance.

Uptime

20488

Days in orbit

Revolutions

≈ 14.7

Per day

Orbit

LEO

Low Earth Orbit

Inclination

70.1

Latest

Satellite identification and parameters

Extended collection of information and parameters for THORAD AGENA D DEB.

Object identification

Identified? True

Debris? True

Object name: THORAD AGENA D DEB

International designator: 1969-082EK

Object number (NORAD): 4438

Object ID (CCSDS): 4438

Country: UNITED STATES OF AMERICA (US)

Current information (Y/N): Y

RCS size: SMALL

Orbital parameters

Period: 98.281 minutes

Inclination: 70.0977 deg

SMA: 7054.598 km

Apoapsis: 707.367 km

Periapsis: 645.558 km

RAAN: 58.5436 deg

Eccentricy: 0.0043808

Argument of periapsis: 132.3085 deg

Mean anomaly: 228.1784 deg

Mean motion: 14.65191517 rev/day

Mean motion (dot): 0.00003551 rev/day2

B* drag term: 0.00066256 1/REarth

Two-line elements (TLE)

Creation date: Nov. 2, 2025, 3:46 p.m.

Reference frame: TEME

Reference center: EARTH

Epoch: Nov. 2, 2025, 11:01 a.m. UTC

TLE line 0: 0 THORAD AGENA D DEB

TLE line 1: 1 4438U 69082EK 25306.45934166 .00003551 00000-0 66256-3 0 9990

TLE line 2: 2 4438 70.0977 58.5436 0043808 132.3085 228.1784 14.65191517941452

Live tracking on map

Real-time ground track for satellite THORAD AGENA D DEB.

In-orbit conjunctions

A list of the most updated potential collisions computed for object THORAD AGENA D DEB.

Target Orbit TCA Probability of collision Miss distance Type
IRIDIUM 33 DEB LEO 2025-08-14 01:45:56 0.0001094156 391.0 (m) DEBRIS
CZ-4 DEB SSO 2025-03-04 21:40:41 0.0001498834 144.0 (m) DEBRIS

Associated space launch

Poppy was the follow-on ELINT system, which succeeded the Grab ELINT satellite system.

THORAD AGENA D DEB was lifted into orbit during the mission ‘Thorad SLV-2G Agena D | Poppy 8A,B,C,D’, on board a Thorad SLV-2G Agena D space rocket.

The launch took place on Sept. 30, 1969, 1:40 p.m. from Space Launch Complex 1W.

For more information about the launch, click the button.

Launch to space Thorad SLV-2G Agena D | Poppy 8A,B,C,D
Thorad SLV-2G Agena D | Poppy 8A,B,C,D

Agency: N/A

Status: Launch Successful

Launch date: Sept. 30, 1969, 1:40 p.m. UTC

Rocket: Thorad SLV-2G Agena D

Launch pad: Space Launch Complex 1W

Location: Vandenberg SFB, CA, USA

...

Latest news about this satellite

There are no fresh news available about this satellite. Check back as we update our databases every day.


Newsletter sign-up

Weekly statistics, charts and insights to help you stay on top of the space industry.